NWK1673 YMHB-YPPH

Flight info

Callsign NWK1673
Flight time N/A
Altitude 36000
Route HB DCT RIBLI DCT TUNGO L513 TAPAX DCT SOLUS DCT PH
Aircraft A319/M-SDE3FGHIRWY/LB1

Departure

Time 2026-05-07 23:06
Airport Hobart International Airport (YMHB)

Arrival

Time N/A
Airport Perth International Airport (YPPH)
Time Latitude Longitude Altitude Speed Heading
2026-05-07 22:48 -42.83656 147.50583 22 ft 0 kts 225°
2026-05-07 22:55 -42.83654 147.50584 23 ft 2 kts 225°
2026-05-07 22:56 -42.83635 147.50607 23 ft 4 kts 212°
2026-05-07 22:56 -42.83611 147.50621 23 ft 4 kts 173°
2026-05-07 22:56 -42.83596 147.50613 22 ft 1 kts 135°
2026-05-07 22:56 -42.83594 147.50611 22 ft 0 kts 135°
2026-05-07 22:58 -42.83600 147.50621 22 ft 3 kts 120°
2026-05-07 22:59 -42.83596 147.50655 22 ft 5 kts 68°
2026-05-07 22:59 -42.83570 147.50699 24 ft 7 kts 60°
2026-05-07 22:59 -42.83585 147.50767 23 ft 9 kts 128°
2026-05-07 22:59 -42.83631 147.50832 22 ft 10 kts 134°
2026-05-07 23:00 -42.83686 147.50909 22 ft 12 kts 135°
2026-05-07 23:00 -42.83752 147.50993 24 ft 14 kts 135°
2026-05-07 23:00 -42.83815 147.51082 22 ft 8 kts 135°
2026-05-07 23:00 -42.83855 147.51135 23 ft 8 kts 135°
2026-05-07 23:01 -42.83853 147.51206 22 ft 9 kts 50°
2026-05-07 23:01 -42.83804 147.51272 24 ft 11 kts 44°
2026-05-07 23:01 -42.83756 147.51363 22 ft 13 kts 82°
2026-05-07 23:01 -42.83811 147.51456 22 ft 14 kts 139°
2026-05-07 23:02 -42.83887 147.51548 23 ft 15 kts 136°
2026-05-07 23:02 -42.83967 147.51656 23 ft 17 kts 135°
2026-05-07 23:02 -42.84054 147.51775 24 ft 19 kts 134°
2026-05-07 23:02 -42.84149 147.51905 22 ft 20 kts 135°
2026-05-07 23:03 -42.84252 147.52042 23 ft 22 kts 135°
2026-05-07 23:03 -42.84354 147.52179 24 ft 20 kts 135°
2026-05-07 23:03 -42.84433 147.52282 22 ft 13 kts 142°
2026-05-07 23:03 -42.84521 147.52320 22 ft 13 kts 166°
2026-05-07 23:04 -42.84555 147.52336 22 ft 2 kts 156°
2026-05-07 23:04 -42.84570 147.52349 22 ft 3 kts 141°
2026-05-07 23:04 -42.84589 147.52381 22 ft 5 kts 119°
2026-05-07 23:04 -42.84577 147.52426 23 ft 6 kts 44°
2026-05-07 23:05 -42.84540 147.52408 23 ft 7 kts 317°
2026-05-07 23:05 -42.84460 147.52301 22 ft 41 kts 316°
2026-05-07 23:05 -42.84087 147.51804 23 ft 107 kts 316°
2026-05-07 23:05 -42.83420 147.50879 28 ft 165 kts 315°
2026-05-07 23:06 -42.82553 147.49790 519 ft 171 kts 313°
2026-05-07 23:06 -42.81670 147.48748 1227 ft 166 kts 310°
2026-05-07 23:06 -42.80855 147.47635 1907 ft 169 kts 305°
2026-05-07 23:06 -42.80001 147.46420 2204 ft 188 kts 305°
2026-05-07 23:07 -42.79046 147.45048 2453 ft 212 kts 305°
2026-05-07 23:07 -42.77969 147.43504 2788 ft 237 kts 306°
2026-05-07 23:07 -42.76770 147.41811 3296 ft 257 kts 306°
2026-05-07 23:07 -42.75495 147.40049 4123 ft 264 kts 306°
2026-05-07 23:08 -42.74188 147.38266 5046 ft 268 kts 306°
2026-05-07 23:08 -42.72857 147.36454 5930 ft 274 kts 306°
2026-05-07 23:08 -42.71498 147.34600 6723 ft 280 kts 306°
2026-05-07 23:08 -42.70110 147.32705 7481 ft 285 kts 306°
2026-05-07 23:09 -42.68693 147.30769 8229 ft 291 kts 306°
2026-05-07 23:09 -42.67253 147.28804 8998 ft 297 kts 306°
2026-05-07 23:09 -42.65783 147.26798 9753 ft 302 kts 307°
2026-05-07 23:09 -42.64281 147.24748 10338 ft 313 kts 307°
2026-05-07 23:10 -42.62691 147.22566 10528 ft 336 kts 307°
2026-05-07 23:10 -42.61000 147.20252 10891 ft 351 kts 308°
2026-05-07 23:10 -42.59258 147.17888 11509 ft 356 kts 308°
2026-05-07 23:10 -42.57492 147.15503 12182 ft 360 kts 308°
2026-05-07 23:11 -42.55727 147.13075 12837 ft 363 kts 307°
2026-05-07 23:11 -42.53967 147.10601 13469 ft 366 kts 307°
2026-05-07 23:11 -42.52198 147.08085 14062 ft 369 kts 306°
2026-05-07 23:11 -42.50423 147.05551 14622 ft 373 kts 306°
2026-05-07 23:12 -42.48792 147.02832 15163 ft 370 kts 296°
2026-05-07 23:12 -42.47575 146.99841 15670 ft 366 kts 285°
2026-05-07 23:12 -42.46767 146.96605 16215 ft 361 kts 275°
2026-05-07 23:12 -42.46305 146.93274 16761 ft 361 kts 272°
2026-05-07 23:13 -42.45869 146.89907 17310 ft 365 kts 272°
2026-05-07 23:13 -42.45425 146.86514 17871 ft 369 kts 272°
2026-05-07 23:13 -42.44973 146.83071 18398 ft 372 kts 272°
2026-05-07 23:13 -42.44515 146.79603 18875 ft 376 kts 272°
2026-05-07 23:14 -42.44050 146.76104 19362 ft 379 kts 272°
2026-05-07 23:14 -42.43581 146.72579 19857 ft 382 kts 272°
2026-05-07 23:14 -42.43110 146.69026 20368 ft 385 kts 272°
2026-05-07 23:14 -42.42633 146.65443 20845 ft 388 kts 272°
2026-05-07 23:15 -42.42148 146.61831 21325 ft 392 kts 272°
2026-05-07 23:15 -42.41656 146.58189 21793 ft 395 kts 272°
2026-05-07 23:15 -42.41326 146.55758 22114 ft 397 kts 272°
2026-05-07 23:15 -42.40825 146.52068 22581 ft 400 kts 273°
2026-05-07 23:16 -42.40321 146.48356 23004 ft 404 kts 273°
2026-05-07 23:16 -42.39811 146.44596 23445 ft 407 kts 273°
2026-05-07 23:16 -42.39301 146.40826 23843 ft 410 kts 273°
2026-05-07 23:16 -42.38786 146.37018 24229 ft 412 kts 273°
2026-05-07 23:17 -42.38265 146.33198 24607 ft 414 kts 273°
2026-05-07 23:17 -42.37737 146.29362 24987 ft 416 kts 273°
2026-05-07 23:17 -42.37206 146.25507 25361 ft 418 kts 273°
2026-05-07 23:17 -42.36672 146.21632 25716 ft 420 kts 273°
2026-05-07 23:18 -42.36136 146.17742 26085 ft 422 kts 273°
2026-05-07 23:18 -42.35598 146.13836 26442 ft 424 kts 273°
2026-05-07 23:18 -42.35057 146.09911 26802 ft 426 kts 273°
2026-05-07 23:18 -42.34522 146.06022 27158 ft 427 kts 272°
2026-05-07 23:19 -42.33973 146.02062 27518 ft 430 kts 273°
2026-05-07 23:19 -42.33416 145.98084 27855 ft 432 kts 273°
2026-05-07 23:19 -42.32855 145.94086 28214 ft 434 kts 273°
2026-05-07 23:19 -42.32289 145.90078 28571 ft 436 kts 273°
2026-05-07 23:20 -42.31717 145.86043 28910 ft 438 kts 273°
2026-05-07 23:20 -42.31142 145.81988 29251 ft 440 kts 273°
2026-05-07 23:20 -42.30561 145.77916 29563 ft 442 kts 273°
2026-05-07 23:20 -42.29978 145.73826 29865 ft 444 kts 273°
2026-05-07 23:21 -42.29395 145.69717 30150 ft 446 kts 273°
2026-05-07 23:21 -42.28811 145.65590 30410 ft 448 kts 273°
2026-05-07 23:21 -42.28221 145.61445 30666 ft 450 kts 273°
2026-05-07 23:21 -42.27624 145.57283 30917 ft 452 kts 273°
2026-05-07 23:22 -42.27022 145.53106 31196 ft 453 kts 273°
2026-05-07 23:22 -42.26417 145.48933 31553 ft 452 kts 273°
2026-05-07 23:22 -42.25812 145.44766 31907 ft 452 kts 273°
2026-05-07 23:22 -42.25206 145.40604 32263 ft 452 kts 273°
2026-05-07 23:23 -42.24601 145.36445 32580 ft 451 kts 273°
2026-05-07 23:23 -42.23996 145.32290 32929 ft 451 kts 273°
2026-05-07 23:23 -42.23390 145.28139 33266 ft 451 kts 273°
2026-05-07 23:23 -42.22783 145.23992 33602 ft 450 kts 273°
2026-05-07 23:24 -42.22178 145.19849 33947 ft 450 kts 273°
2026-05-07 23:24 -42.21571 145.15710 34260 ft 450 kts 273°
2026-05-07 23:24 -42.20962 145.11584 34548 ft 449 kts 273°
2026-05-07 23:24 -42.20348 145.07444 34828 ft 449 kts 273°
2026-05-07 23:25 -42.19741 145.03371 35097 ft 449 kts 273°
2026-05-07 23:25 -42.19123 144.99246 35367 ft 449 kts 273°
2026-05-07 23:25 -42.18504 144.95125 35621 ft 448 kts 273°
2026-05-07 23:25 -42.17886 144.91005 35871 ft 448 kts 273°
2026-05-07 23:26 -42.17267 144.86877 36072 ft 449 kts 273°
2026-05-07 23:26 -42.16028 144.78647 36125 ft 447 kts 273°
2026-05-07 23:27 -42.14163 144.66330 36130 ft 447 kts 274°
2026-05-07 23:27 -42.12907 144.58124 36134 ft 447 kts 274°
2026-05-07 23:28 -42.11644 144.49921 36137 ft 447 kts 274°
2026-05-07 23:28 -42.10376 144.41722 36134 ft 447 kts 274°
2026-05-07 23:29 -42.09107 144.33523 36135 ft 447 kts 274°
2026-05-07 23:29 -42.07836 144.25325 36135 ft 447 kts 274°
2026-05-07 23:30 -42.06566 144.17189 36133 ft 447 kts 274°
2026-05-07 23:30 -42.05280 144.09003 36141 ft 447 kts 274°
2026-05-07 23:31 -42.03985 144.00820 36139 ft 447 kts 274°
2026-05-07 23:31 -42.02691 143.92646 36142 ft 447 kts 274°
2026-05-07 23:32 -42.01388 143.84458 36144 ft 447 kts 274°
2026-05-07 23:32 -42.00077 143.76293 36148 ft 447 kts 274°